TIME,DELAY(SENSOR),PRES,OXYGEN,RAWTEMP,T(OPTODE),TCPHASE,FLUOR,BETA(BETA700),BETA(BETA412),BETA(BETA440),CDOM,C(CSC),ED(ED412.20),ED(ED444.00),ED(ED489.60),ED(ED554.30),LU(LU412.10),LU(LU443.90),LU(LU489.70),LU(LU554.70),COMP,TILTX,TILTY,CHECK
1334548584,5809,893.8099975585938000,36.2611618041992200,558.7885742187500000,4.5234341621398930,56.0732688903808600,56,102,101,80,83,15445,0,0,0,0,2147125714,2147777691,2147574372,2147578541,338,2,13,2419
1334552180,5809,985.1500244140625000,41.2605705261230500,566.6459960937500000,4.2797389030456540,55.3885002136230500,55,100,101,78,83,15418,0,0,0,0,2147122203,2147773147,2147576219,2147572717,2110,2,13,9977
1334555780,5808,1004.7800292968750000,41.6514816284179700,567.1411132812500000,4.2643699645996090,55.3404617309570300,55,99,102,79,83,15423,0,0,0,0,2147129078,2147775442,2147576539,2147574912,531,2,13,18129
1334559380,5809,1013.4099731445312000,41.4815711975097660,567.9738159179688000,4.2385101318359375,55.3750114440918000,55,99,102,78,84,15420,0,0,0,0,2147127186,2147777828,2147574985,2147574500,3548,2,13,15885
1334562980,5808,1022.7600097656250000,41.0248413085937500,568.4525146484375000,4.2236390113830570,55.4440307617187500,56,100,102,79,84,15418,0,0,0,0,2147126564,2147770834,2147571602,2147575734,3565,2,13,21537
1334566580,5811,1028.6800537109375000,40.7758216857910160,567.2031250000000000,4.2624421119689940,55.4676704406738300,56,103,102,79,84,15415,0,0,0,0,2147129270,2147773705,2147573184,2147572489,26,2,13,52364
1334570180,5811,1024.5999755859375000,40.5846595764160160,568.2052001953125000,4.2313208580017090,55.5104904174804700,55,99,101,78,85,15413,0,0,0,0,2147124406,2147776384,2147574902,2147574473,235,2,13,33644
1334573780,5811,1022.9699707031250000,40.1365509033203100,568.6082763671875000,4.2188000679016110,55.5808601379394500,54,104,102,79,83,15419,0,0,0,0,2147127305,2147778112,2147578294,2147573412,133,2,13,35809
1334577380,5808,1023.7199707031250000,41.8993301391601560,570.5880737304688000,4.1572837829589840,55.3388900756835940,55,98,102,78,84,15416,0,0,0,0,2147126912,2147776173,2147575817,2147573906,739,2,13,53617
1334580980,5810,1021.6099853515625000,41.9702301025390600,570.3811035156250000,4.1637167930603030,55.3265419006347660,55,100,101,79,84,15413,0,0,0,0,2147126912,2147780233,2147575899,2147574454,224,2,13,19865
1334584580,5807,1017.2000122070312000,41.5008506774902340,570.8560791015625000,4.1489539146423340,55.3994712829589840,55,103,101,80,84,15402,0,0,0,0,2147126363,2147771364,2147575552,2147573942,227,2,13,61444
1334588180,5809,1014.1400146484375000,43.2516899108886700,572.3287963867188000,4.1031699180603030,55.1649589538574200,55,105,101,78,85,15397,0,0,0,0,2147128612,2147781485,2147582390,2147572690,367,2,13,33019
1334591780,5809,1015.2299804687500000,43.3896903991699200,572.9180908203125000,4.0848450660705570,55.1474113464355500,55,100,102,79,83,15408,0,0,0,0,2147126848,2147775451,2147576329,2147572461,504,2,13,18892
1334595380,5810,1015.3200073242188000,43.7012290954589840,572.9288940429688000,4.0845069885253910,55.1062812805175800,54,99,101,78,84,15402,0,0,0,0,2147126070,2147780480,2147577261,2147576237,3546,2,13,18379
1334598980,5808,1018.7199707031250000,43.4258384704589840,572.8198242187500000,4.0879020690917970,55.1439590454101560,55,99,101,78,83,15395,0,0,0,0,2147124955,2147778038,2147575058,2147571090,146,2,13,19002
1334602580,5809,1021.4500122070312000,42.5311584472656250,572.6201171875000000,4.0941100120544430,55.2692718505859400,55,100,103,79,84,15406,0,0,0,0,2147122916,2147772763,2147574226,2147572891,171,2,13,49714
1334606180,5812,1021.2500000000000000,42.8390007019043000,572.5723876953125000,4.0955939292907715,55.2280998229980500,55,99,102,78,84,15403,0,0,0,0,2147125430,2147777865,2147573092,2147574610,113,2,13,52066
1334609780,5810,1027.0600585937500000,43.1442909240722660,572.2512207031250000,4.1055808067321780,55.1765098571777340,55,104,103,79,84,15400,0,0,0,0,2147126601,2147771227,2147573376,2147573211,133,2,13,46388
1334613380,5809,1023.5499877929688000,43.0976715087890600,572.1204833984375000,4.1096458435058590,55.1797485351562500,54,102,101,78,84,15399,0,0,0,0,2147126537,2147782482,2147572233,2147572681,373,2,13,36563
1334616980,5809,1022.7299804687500000,42.3474502563476560,572.0822753906250000,4.1108341217041020,55.2928314208984400,55,100,101,79,83,15396,0,0,0,0,2147123328,2147773577,2147572781,2147572461,315,2,13,7705
1334620580,5809,1023.3400268554688000,42.4004898071289060,572.5125732421875000,4.0974521636962890,55.2906799316406250,55,99,101,79,84,15396,0,0,0,0,2147123629,2147782299,2147570322,2147574665,34,2,13,26714
1334624180,5810,1024.3100585937500000,43.0665588378906250,572.1729736328125000,4.1080131530761720,55.1856803894043000,54,101,100,79,84,15398,0,0,0,0,2147126208,2147772736,2147573494,2147569856,82,2,13,41454
1334627780,5811,1020.1900024414062000,43.7766304016113300,572.6566772460938000,4.0929741859436035,55.0941390991210940,54,100,102,79,85,15395,0,0,0,0,2147125824,2147778002,2147573577,2147572699,82,2,13,52445
1334631380,5807,1017.2100219726562000,43.5274810791015600,572.9956054687500000,4.0824317932128910,55.1309585571289060,55,101,102,79,84,15389,0,0,0,0,2147125933,2147780900,2147577060,2147574537,275,2,13,45544
1334634980,5808,1020.7199707031250000,44.0712013244628900,572.6455078125000000,4.0933208465576170,55.0545387268066400,55,100,102,79,84,15393,0,0,0,0,2147125284,2147778834,2147569627,2147574162,324,2,13,19570
1334638580,5810,1027.4200439453125000,43.5881614685058600,572.1776733398438000,4.1078681945800780,55.1104011535644500,56,100,102,78,84,15391,0,0,0,0,2147128365,2147775012,2147572882,2147570688,160,2,13,27692
1334642180,5812,1022.0700073242188000,43.6976585388183600,572.6666259765625000,4.0926628112792970,55.1032104492187500,55,100,102,78,84,15389,0,0,0,0,2147123437,2147773046,2147575058,2147574409,664,2,13,17575
1334645780,5810,1017.8499755859375000,43.4745597839355500,573.8372192382812000,4.0562567710876465,55.1449699401855500,54,102,101,79,84,15390,0,0,0,0,2147122377,2147775881,2147572361,2147573942,455,2,13,50130
1334649380,5809,1021.4299926757812000,43.4229583740234400,573.5391845703125000,4.0655250549316410,55.1525688171386700,55,100,100,78,83,15392,0,0,0,0,2147123355,2147769910,2147574893,2147574262,272,2,13,7630
1334652980,5808,1024.5400390625000000,43.7032699584960940,572.5642700195312000,4.0958437919616700,55.1019287109375000,55,102,102,78,84,15390,0,0,0,0,2147124278,2147773028,2147568960,2147573513,588,2,13,1982
1334656580,5812,1023.5200195312500000,43.5900688171386700,573.4163208007812000,4.0693469047546390,55.1247215270996100,55,101,102,79,84,15384,0,0,0,0,2147124406,2147775588,2147573888,2147573988,3550,2,13,46962
1334660180,5810,1035.9300537109375000,43.1616401672363300,571.2271728515625000,4.1374168395996090,55.1651611328125000,55,103,100,79,84,15386,0,0,0,0,2147122669,2147775579,2147572790,2147570560,205,2,13,5505
1334663780,5813,1041.2099609375000000,42.2266311645507800,570.1956176757812000,4.1694808006286620,55.2899589538574200,56,107,101,79,83,15382,0,0,0,0,2147122724,2147777152,2147572781,2147571410,3385,2,13,41070
1334667380,5809,1034.5999755859375000,41.9869308471679700,570.2222900390625000,4.1686530113220215,55.3212585449218750,56,176,100,79,84,15385,0,0,0,0,2147123218,2147774692,2147574939,2147573248,3483,2,13,43093
1334670980,5811,1024.7199707031250000,40.5746498107910160,570.1198730468750000,4.1718330383300780,55.5296897888183600,55,101,102,80,85,15356,0,0,0,0,2147125248,2147775561,2147571172,2147572809,72,2,13,12154
1334674580,5809,1019.1799926757812000,40.3419494628906250,570.2564086914062000,4.1675930023193360,55.5689201354980500,54,106,101,79,84,15354,0,0,0,0,2147126400,2147774765,2147572763,2147575369,429,2,13,34463
1334678180,5809,1018.9099731445312000,41.4099502563476560,570.8967895507812000,4.1476898193359375,55.4134712219238300,54,102,101,78,85,15348,0,0,0,0,2147122852,2147775515,2147576356,2147573485,577,2,13,15852
1334681780,5811,1020.2700195312500000,41.0223999023437500,571.3948974609375000,4.1322059631347660,55.4779281616210940,55,102,103,78,85,15348,0,0,0,0,2147125147,2147780434,2147573302,2147574665,121,2,13,37903
1334685380,5808,1022.4899902343750000,42.7309608459472660,571.2772827148438000,4.1358599662780760,55.2302017211914060,56,99,100,79,84,15348,0,0,0,0,2147126729,2147775689,2147572873,2147574427,3535,2,13,46254
1334688980,5811,1020.4799804687500000,42.6631011962890600,572.1578979492188000,4.1084818840026855,55.2469902038574200,54,100,102,77,83,15336,0,0,0,0,2147123995,2147772196,2147570688,2147574756,351,2,13,46856
1334692255,5812,1024.1400146484375000,43.8251609802246100,573.0109252929688000,4.0819568634033200,55.0899581909179700,55,100,101,78,84,15336,0,0,0,0,2147124114,2147778587,2147573193,2147571812,3119,2,13,57803
